FW7092 Weather Reports


Display with metric or nautical units.
time (UTC)temp
F
wind
direction
speed
MPH
gust
MPH
rain 1hr
in
rain 24hr
in
rain mn
in
humidity
%
barometer
mb
20260831084827 72 231 4.0 6.0 0.00 0.00 0.00 90 1018.1
20260831084323 72 217 3.0 6.0 0.00 0.00 0.00 90 1018.4
20260831083819 72 222 7.0 13.0 0.00 0.00 0.00 89 1018.6
20260831083315 72 215 8.0 9.0 0.00 0.00 0.00 91 1018.4
20260831082813 71 211 7.0 8.0 0.00 0.00 0.00 92 1018.7
20260831082308 71 225 5.0 7.0 0.00 0.00 0.00 93 1018.4
20260831081804 71 220 3.0 5.0 0.00 0.00 0.00 94 1018.7
20260831081259 71 224 2.0 3.0 0.00 0.00 0.00 94 1018.7
20260831080754 71 235 3.0 6.0 0.00 0.00 0.00 93 1018.8
20260831080249 71 216 4.0 6.0 0.00 0.00 0.00 94 1018.7
20260831075746 71 217 4.0 5.0 0.00 0.00 0.00 94 1018.8
20260831075241 71 238 2.0 3.0 0.00 0.00 0.00 94 1018.9
20260831074740 71 230 2.0 2.0 0.00 0.00 0.00 94 1018.9
20260831074234 71 228 2.0 3.0 0.00 0.00 0.00 94 1018.9
20260831073730 71 228 2.0 2.0 0.00 0.00 0.00 94 1018.8
20260831073229 71 222 2.0 2.0 0.00 0.00 0.00 94 1018.9
20260831072724 72 226 3.0 3.0 0.00 0.00 0.00 93 1018.9
20260831072220 72 233 3.0 5.0 0.00 0.00 0.00 93 1018.8
20260831071715 72 220 3.0 3.0 0.00 0.00 0.00 93 1019.0
20260831071215 72 222 3.0 5.0 0.00 0.00 0.00 92 1018.9
20260831070709 72 218 4.0 5.0 0.00 0.00 0.00 92 1019.0
20260831070203 72 227 4.0 5.0 0.00 0.00 0.00 92 1019.0
20260831065702 72 227 3.0 3.0 0.00 0.00 0.00 92 1018.9
20260831065201 72 225 3.0 5.0 0.00 0.00 0.00 92 1019.1
20260831064656 72 223 3.0 5.0 0.00 0.00 0.00 92 1019.1
20260831064151 72 207 4.0 6.0 0.00 0.00 0.00 92 1019.0
20260831063647 72 231 3.0 5.0 0.00 0.00 0.00 92 1019.0
20260831063142 72 225 3.0 3.0 0.00 0.00 0.00 92 1019.1
20260831062643 72 218 3.0 3.0 0.00 0.00 0.00 93 1018.9
20260831062142 72 222 3.0 5.0 0.00 0.00 0.00 93 1019.0
20260831061640 72 211 4.0 5.0 0.00 0.00 0.00 93 1019.0
20260831061136 71 214 3.0 3.0 0.00 0.00 0.00 94 1018.9
20260831060632 71 219 2.0 2.0 0.00 0.00 0.00 94 1018.9
20260831060126 71 217 2.0 2.0 0.00 0.00 0.00 94 1019.1
20260831055625 71 213 2.0 2.0 0.00 0.00 0.00 94 1019.1
20260831055121 71 217 2.0 3.0 0.00 0.00 0.00 94 1019.2
20260831054621 71 216 2.0 3.0 0.00 0.00 0.00 94 1019.2
20260831054115 71 219 2.0 3.0 0.00 0.00 0.00 95 1019.1
20260831053614 71 215 2.0 3.0 0.00 0.00 0.00 94 1019.0
20260831053114 71 215 2.0 2.0 0.00 0.00 0.00 94 1019.3
20260831052612 71 215 2.0 2.0 0.00 0.00 0.00 94 1019.1
20260831052107 71 217 1.0 1.0 0.00 0.00 0.00 94 1019.3
20260831051605 71 215 1.0 1.0 0.00 0.00 0.00 94 1019.3
20260831051104 71 223 0.0 0.0 0.00 0.00 0.00 94 1019.6
20260831050604 71 221 0.0 0.0 0.00 0.00 0.00 94 1019.3
20260831045557 71 222 0.0 1.0 0.00 0.00 0.00 94 1019.3
20260831045052 71 221 1.0 1.0 0.00 0.00 0.00 94 1019.5
20260831044548 71 215 1.0 1.0 0.00 0.00 0.00 94 1019.5
20260831044043 71 219 1.0 2.0 0.00 0.00 0.00 94 1019.6
20260831043543 71 233 1.0 1.0 0.00 0.00 0.00 92 1019.6
20260831043033 72 213 3.0 3.0 0.00 0.00 0.00 92 1019.6
20260831042532 72 215 3.0 3.0 0.00 0.00 0.00 92 1019.5
20260831042027 72 226 3.0 5.0 0.00 0.00 0.00 92 1019.5
20260831041521 72 216 3.0 3.0 0.00 0.00 0.00 92 1019.4
20260831041015 72 217 2.0 3.0 0.00 0.00 0.00 92 1019.2
20260831040510 72 211 3.0 3.0 0.00 0.00 0.00 92 1019.5
20260831040009 72 211 3.0 3.0 0.00 0.04 0.04 91 1019.2
20260831035502 72 205 2.0 2.0 0.00 0.04 0.04 91 1019.3
20260831034957 72 214 3.0 3.0 0.00 0.04 0.04 91 1019.3
20260831034451 72 211 4.0 5.0 0.00 0.04 0.04 91 1019.2
20260831033947 72 213 3.0 5.0 0.00 0.04 0.04 91 1019.2
20260831033442 72 203 4.0 7.0 0.00 0.04 0.04 91 1019.1
20260831032938 71 208 4.0 5.0 0.00 0.04 0.04 92 1019.2
20260831032438 71 198 4.0 5.0 0.00 0.04 0.04 92 1019.0
20260831031933 71 194 4.0 5.0 0.00 0.04 0.04 91 1019.2
20260831031432 71 212 5.0 7.0 0.00 0.04 0.04 92 1019.3
20260831030931 71 220 4.0 5.0 0.00 0.04 0.04 92 1019.3
20260831030431 71 213 4.0 5.0 0.00 0.04 0.04 92 1019.2
20260831025929 71 212 3.0 5.0 0.00 0.04 0.04 92 1019.3
20260831025429 71 206 3.0 5.0 0.00 0.04 0.04 92 1019.5
20260831024925 71 211 2.0 5.0 0.00 0.04 0.04 92 1019.5
20260831024424 71 208 3.0 3.0 0.00 0.04 0.04 92 1019.5
20260831023919 71 216 3.0 3.0 0.00 0.04 0.04 92 1019.5
20260831023417 70 211 2.0 2.0 0.00 0.04 0.04 92 1019.5
20260831022913 70 207 1.0 2.0 0.00 0.04 0.04 92 1019.5
20260831022411 70 214 2.0 2.0 0.00 0.04 0.04 92 1019.5
20260831021906 70 216 1.0 1.0 0.00 0.04 0.04 92 1019.3
20260831021405 71 224 1.0 2.0 0.00 0.04 0.04 91 1019.3
20260831020902 71 207 2.0 2.0 0.00 0.04 0.04 90 1019.3
20260831020401 71 204 2.0 2.0 0.00 0.04 0.04 90 1019.4
20260831015856 72 203 2.0 3.0 0.00 0.04 0.04 89 1019.3
20260831015352 72 181 3.0 3.0 0.00 0.04 0.04 89 1019.2
20260831014847 72 214 1.0 2.0 0.00 0.04 0.04 88 1019.3
20260831014341 72 202 0.0 2.0 0.00 0.04 0.04 88 1019.5
20260831013837 72 199 2.0 3.0 0.00 0.04 0.04 88 1019.3
20260831013332 72 204 1.0 2.0 0.00 0.04 0.04 88 1019.2
20260831012827 72 199 2.0 2.0 0.00 0.04 0.04 87 1019.1
20260831012323 72 182 2.0 2.0 0.00 0.04 0.04 87 1019.1
20260831011822 72 216 1.0 2.0 0.00 0.04 0.04 87 1019.1
20260831011317 72 209 1.0 1.0 0.00 0.04 0.04 87 1019.2
20260831010813 73 185 1.0 2.0 0.00 0.04 0.04 86 1019.1
20260831010312 73 214 0.0 3.0 0.00 0.04 0.04 86 1019.1
20260831005808 73 193 3.0 3.0 0.00 0.04 0.04 86 1019.3
20260831005306 73 221 0.0 3.0 0.00 0.04 0.04 85 1019.0
20260831004758 73 194 2.0 2.0 0.00 0.04 0.04 85 1019.0
20260831004254 73 221 2.0 3.0 0.00 0.04 0.04 85 1019.2
20260831003750 73 228 0.0 3.0 0.00 0.04 0.04 85 1019.4
20260831003245 73 188 1.0 2.0 0.00 0.04 0.04 85 1019.4
20260831002744 73 172 2.0 5.0 0.00 0.04 0.04 85 1019.3
20260831002239 73 207 1.0 2.0 0.00 0.04 0.04 86 1019.4
20260831001735 72 209 1.0 2.0 0.00 0.04 0.04 87 1019.5
20260831001230 72 216 0.0 0.0 0.00 0.04 0.04 87 1019.4
20260831000727 72 214 0.0 1.0 0.00 0.04 0.04 87 1019.4
20260831000222 73 213 1.0 1.0 0.00 0.04 0.04 86 1019.6
20260830235720 72 201 2.0 2.0 0.00 0.04 0.04 86 1019.6
20260830235216 72 217 0.0 0.0 0.00 0.04 0.04 87 1019.5
20260830234710 72 207 0.0 0.0 0.00 0.04 0.04 87 1019.6
20260830234207 72 215 1.0 1.0 0.00 0.04 0.04 87 1019.5
20260830233702 72 213 0.0 0.0 0.00 0.04 0.04 87 1019.6
20260830233157 72 220 0.0 0.0 0.00 0.04 0.04 87 1019.6
20260830232653 72 212 0.0 0.0 0.00 0.04 0.04 88 1019.6
20260830232148 72 207 0.0 1.0 0.00 0.04 0.04 88 1019.8
20260830231645 72 209 0.0 0.0 0.00 0.04 0.04 89 1019.8
20260830231144 72 201 1.0 1.0 0.00 0.04 0.04 89 1019.8
20260830230639 72 206 1.0 1.0 0.00 0.04 0.04 88 1020.1
20260830230139 72 216 1.0 2.0 0.00 0.04 0.04 86 1020.2
20260830225634 72 219 1.0 1.0 0.00 0.04 0.04 87 1020.1
20260830225129 71 212 1.0 2.0 0.00 0.04 0.04 84 1020.0
20260830224628 71 252 0.0 1.0 0.07 0.04 0.04 87 1020.0
20260830224124 73 198 1.0 3.0 0.14 0.04 0.04 89 1020.3
20260830223621 73 317 3.0 3.0 0.07 0.02 0.02 88 1020.5
20260830223120 74 253 2.0 2.0 0.00 0.01 0.01 87 1020.6
20260830222615 75 251 2.0 2.0 0.00 0.01 0.01 85 1020.5
20260830222111 75 236 1.0 2.0 0.00 0.01 0.01 82 1020.3
20260830221606 75 262 3.0 3.0 0.00 0.01 0.01 81 1020.1
20260830221102 76 251 2.0 3.0 0.00 0.01 0.01 80 1019.8
20260830220557 76 236 2.0 5.0 0.00 0.01 0.01 78 1019.3
20260830220056 77 213 4.0 7.0 0.00 0.01 0.01 76 1019.2
20260830215555 77 235 6.0 9.0 0.00 0.01 0.01 75 1019.1
20260830215049 78 217 4.0 6.0 0.00 0.01 0.01 76 1019.1
20260830214544 78 202 5.0 8.0 0.00 0.01 0.01 75 1019.0
20260830214040 78 248 4.0 7.0 0.00 0.01 0.01 75 1019.0
20260830213539 77 216 5.0 7.0 0.00 0.01 0.01 75 1018.9
20260830213035 77 239 7.0 8.0 0.00 0.01 0.01 75 1018.9
20260830212531 78 254 4.0 6.0 0.00 0.01 0.01 78 1018.8
20260830212026 77 215 6.0 7.0 0.00 0.01 0.01 77 1018.8
20260830211521 77 211 6.0 7.0 0.00 0.01 0.01 77 1018.9
20260830211020 77 249 7.0 8.0 0.00 0.01 0.01 78 1018.9
20260830210515 77 221 3.0 8.0 0.00 0.01 0.01 77 1018.5
20260830210015 77 210 5.0 7.0 0.00 0.01 0.01 76 1018.8
20260830205512 77 216 5.0 7.0 0.00 0.01 0.01 76 1018.5
20260830205009 76 211 5.0 7.0 0.00 0.01 0.01 77 1018.6
20260830204507 76 219 5.0 7.0 0.00 0.01 0.01 77 1018.6
20260830204001 77 214 6.0 8.0 0.00 0.01 0.01 76 1018.6
20260830203458 76 213 7.0 7.0 0.00 0.01 0.01 76 1018.3
20260830202957 76 202 5.0 8.0 0.00 0.01 0.01 77 1018.4
20260830202452 76 216 4.0 8.0 0.00 0.01 0.01 77 1018.4
20260830201948 76 197 4.0 6.0 0.00 0.01 0.01 77 1018.5
20260830201447 76 221 5.0 6.0 0.00 0.01 0.01 77 1018.4
20260830200943 75 220 4.0 5.0 0.00 0.01 0.01 78 1018.5
20260830200442 75 215 4.0 7.0 0.00 0.01 0.01 79 1018.4
20260830195937 75 217 3.0 6.0 0.00 0.01 0.01 79 1018.6
20260830195432 75 204 3.0 5.0 0.00 0.01 0.01 79 1018.3
20260830194930 75 211 4.0 5.0 0.00 0.01 0.01 80 1018.6
20260830194430 75 198 3.0 5.0 0.00 0.01 0.01 79 1018.7
20260830193930 75 214 3.0 5.0 0.00 0.01 0.01 80 1018.9
20260830193429 75 215 4.0 5.0 0.00 0.01 0.01 80 1018.8
20260830192925 74 193 4.0 6.0 0.00 0.01 0.01 80 1018.8
20260830192420 74 200 5.0 6.0 0.00 0.01 0.01 79 1018.8
20260830191915 74 175 3.0 5.0 0.00 0.01 0.01 80 1019.1
20260830191415 73 193 2.0 3.0 0.00 0.01 0.01 81 1018.9
20260830190910 73 213 2.0 5.0 0.00 0.01 0.01 81 1019.0
20260830190406 73 199 3.0 3.0 0.00 0.01 0.01 81 1018.9
20260830185905 73 205 2.0 5.0 0.00 0.01 0.01 82 1019.2
20260830185400 73 211 4.0 9.0 0.00 0.01 0.01 81 1019.5
20260830184855 73 208 6.0 8.0 0.00 0.01 0.01 82 1019.4
20260830184354 73 215 7.0 9.0 0.00 0.01 0.01 85 1019.1
20260830183854 72 186 7.0 9.0 0.00 0.01 0.01 84 1018.9
20260830183349 72 182 7.0 10.0 0.00 0.01 0.01 86 1019.5
20260830182844 72 209 7.0 9.0 0.00 0.01 0.01 89 1019.7
20260830182340 72 198 6.0 14.0 0.00 0.01 0.01 89 1019.8
20260830181836 72 195 7.0 9.0 0.00 0.01 0.01 90 1020.1
20260830181331 71 213 5.0 7.0 0.00 0.01 0.01 90 1020.1
20260830180830 71 205 5.0 7.0 0.00 0.01 0.01 91 1020.2
20260830180325 71 211 4.0 6.0 0.00 0.01 0.01 92 1020.4
20260830175824 71 205 5.0 7.0 0.00 0.01 0.01 91 1020.6
20260830175319 71 220 5.0 8.0 0.00 0.01 0.01 92 1020.8
20260830174814 71 203 4.0 5.0 0.00 0.01 0.01 92 1021.0
20260830174310 71 207 4.0 6.0 0.00 0.01 0.01 91 1021.1
20260830173809 71 199 3.0 5.0 0.00 0.01 0.01 91 1021.2
20260830173305 71 208 5.0 5.0 0.00 0.01 0.01 92 1021.4
20260830172801 71 210 4.0 5.0 0.00 0.01 0.01 92 1021.5
20260830172258 71 178 4.0 5.0 0.00 0.01 0.01 93 1021.5
20260830171753 71 186 3.0 5.0 0.00 0.01 0.01 93 1021.8
20260830171248 71 199 3.0 5.0 0.00 0.01 0.01 93 1021.7
20260830170743 71 212 2.0 3.0 0.00 0.01 0.01 94 1021.9
20260830170242 71 218 2.0 2.0 0.00 0.01 0.01 94 1021.9
20260830165741 71 195 3.0 3.0 0.00 0.01 0.01 93 1021.8
20260830165237 71 194 2.0 2.0 0.07 0.01 0.01 92 1021.9
20260830164733 71 206 2.0 2.0 0.07 0.01 0.01 91 1021.8
20260830164229 72 215 0.0 0.0 0.00 0.00 0.00 91 1021.9
20260830163726 71 217 0.0 1.0 0.00 0.00 0.00 91 1022.0
20260830163221 72 212 1.0 1.0 0.00 0.00 0.00 91 1022.4
20260830162715 72 215 0.0 0.0 0.00 0.00 0.00 90 1022.3
20260830162212 71 213 0.0 2.0 0.00 0.00 0.00 90 1022.4
20260830161707 72 222 1.0 1.0 0.00 0.00 0.00 90 1022.3
20260830161201 72 212 0.0 0.0 0.00 0.00 0.00 89 1022.3
20260830160657 72 210 0.0 0.0 0.00 0.00 0.00 90 1022.3
20260830160151 71 214 0.0 0.0 0.00 0.00 0.00 91 1022.3
20260830155648 72 216 0.0 1.0 0.00 0.00 0.00 92 1022.5
20260830155143 71 214 0.0 0.0 0.00 0.00 0.00 91 1022.3
20260830154638 71 219 0.0 0.0 0.00 0.00 0.00 91 1022.5
20260830154134 71 217 0.0 0.0 0.00 0.00 0.00 91 1022.6
20260830153631 71 224 1.0 1.0 0.00 0.00 0.00 91 1023.1
20260830153130 71 244 0.0 0.0 0.00 0.00 0.00 92 1023.1
20260830152629 71 237 1.0 2.0 0.00 0.00 0.00 92 1023.1
20260830152128 71 217 0.0 1.0 0.00 0.00 0.00 92 1022.9
20260830151624 71 208 0.0 0.0 0.00 0.00 0.00 92 1022.8
20260830151123 71 203 0.0 1.0 0.00 0.00 0.00 93 1022.7
20260830150618 70 273 0.0 1.0 0.00 0.00 0.00 93 1022.8
20260830150113 70 261 0.0 0.0 0.00 0.00 0.00 93 1022.8
20260830145612 70 260 0.0 0.0 0.00 0.00 0.00 93 1022.7
20260830145107 70 260 0.0 0.0 0.00 0.00 0.00 93 1022.7
20260830144603 70 260 1.0 2.0 0.00 0.00 0.00 93 1022.6
20260830144059 70 245 0.0 0.0 0.00 0.00 0.00 93 1022.3
20260830143555 71 242 0.0 1.0 0.00 0.00 0.00 93 1022.1
20260830143053 70 208 0.0 1.0 0.00 0.00 0.00 92 1022.2
20260830142548 70 169 0.0 1.0 0.00 0.00 0.00 92 1022.0
20260830142043 70 161 0.0 0.0 0.00 0.00 0.00 92 1021.9
20260830141538 70 160 0.0 0.0 0.00 0.00 0.00 92 1021.6
20260830141038 70 159 0.0 0.0 0.00 0.00 0.00 92 1021.7
20260830140533 70 157 0.0 1.0 0.00 0.00 0.00 92 1021.7
20260830140029 70 124 1.0 1.0 0.00 0.00 0.00 92 1021.7
20260830135524 70 80 0.0 0.0 0.00 0.00 0.00 93 1021.5
20260830135019 70 149 1.0 3.0 0.00 0.00 0.00 93 1021.5
20260830134515 70 244 0.0 1.0 0.00 0.00 0.00 93 1021.5
20260830134010 70 240 0.0 0.0 0.00 0.00 0.00 93 1021.2
20260830133505 69 224 0.0 0.0 0.00 0.00 0.00 92 1021.3
20260830132959 69 240 0.0 0.0 0.00 0.00 0.00 92 1021.3
20260830132451 69 222 0.0 0.0 0.00 0.00 0.00 92 1021.3
20260830131950 69 222 0.0 0.0 0.00 0.00 0.00 91 1020.9
20260830131449 69 231 0.0 0.0 0.00 0.00 0.00 91 1021.1
20260830130944 69 237 2.0 2.0 0.00 0.00 0.00 90 1021.2
20260830130440 69 232 1.0 1.0 0.00 0.00 0.00 89 1021.1
20260830125938 70 243 1.0 2.0 0.00 0.00 0.00 89 1021.0
20260830125434 70 251 1.0 1.0 0.00 0.00 0.00 88 1020.9
20260830124932 70 254 0.0 1.0 0.00 0.00 0.00 88 1020.9
20260830124427 70 256 1.0 1.0 0.00 0.00 0.00 87 1020.6
20260830123924 70 234 0.0 1.0 0.00 0.00 0.00 86 1020.5
20260830123420 70 219 1.0 2.0 0.00 0.00 0.00 86 1020.4
20260830122918 70 205 1.0 2.0 0.00 0.00 0.00 85 1020.4
20260830122412 70 204 1.0 2.0 0.00 0.00 0.00 86 1020.2
20260830121912 70 218 3.0 3.0 0.00 0.00 0.00 85 1020.2
20260830121408 70 215 3.0 3.0 0.00 0.00 0.00 86 1019.9
20260830120902 70 204 3.0 3.0 0.00 0.00 0.00 85 1020.1
20260830120358 69 202 3.0 3.0 0.00 0.00 0.00 87 1019.9
20260830115854 69 201 3.0 3.0 0.00 0.00 0.00 87 1019.9
20260830115350 69 194 3.0 3.0 0.00 0.00 0.00 88 1020.0
20260830114845 68 209 3.0 3.0 0.00 0.00 0.00 89 1020.1
20260830114342 68 209 1.0 2.0 0.00 0.00 0.00 89 1020.2
20260830113836 68 180 2.0 2.0 0.00 0.00 0.00 89 1020.3
20260830113331 68 198 0.0 1.0 0.00 0.00 0.00 90 1020.3
20260830112827 67 214 0.0 0.0 0.00 0.00 0.00 92 1020.3
20260830112323 67 212 0.0 0.0 0.00 0.00 0.00 92 1020.3
20260830111819 67 216 0.0 0.0 0.00 0.00 0.00 93 1020.3
20260830111314 67 216 0.0 0.0 0.00 0.00 0.00 93 1020.6
20260830110814 67 219 0.0 1.0 0.00 0.00 0.00 93 1020.6
20260830110311 67 227 0.0 0.0 0.00 0.00 0.00 93 1020.4
20260830105809 67 227 0.0 0.0 0.00 0.00 0.00 93 1020.8
20260830105306 67 227 0.0 0.0 0.00 0.00 0.00 93 1020.6
20260830104802 67 227 0.0 0.0 0.00 0.00 0.00 93 1020.8
20260830104258 67 227 0.0 0.0 0.00 0.00 0.00 92 1020.6
20260830103757 67 227 0.0 0.0 0.00 0.00 0.00 92 1020.6
20260830103253 67 227 0.0 0.0 0.00 0.00 0.00 92 1020.5
20260830102751 67 227 0.0 0.0 0.00 0.00 0.00 92 1020.8
20260830102247 67 227 0.0 0.0 0.00 0.00 0.00 92 1020.5
20260830101743 67 227 0.0 0.0 0.00 0.00 0.00 92 1020.6
20260830101238 67 227 0.0 0.0 0.00 0.00 0.00 92 1020.4
20260830100737 67 227 0.0 0.0 0.00 0.00 0.00 92 1020.4
20260830100232 67 227 0.0 0.0 0.00 0.00 0.00 91 1020.2
20260830095730 67 227 0.0 0.0 0.00 0.00 0.00 91 1020.4
20260830095227 67 227 0.0 0.0 0.00 0.00 0.00 91 1020.5
20260830094722 68 227 0.0 0.0 0.00 0.00 0.00 91 1020.8
20260830094219 68 226 0.0 1.0 0.00 0.00 0.00 90 1020.6
20260830093713 68 217 1.0 1.0 0.00 0.00 0.00 88 1020.5
20260830093210 68 210 0.0 0.0 0.00 0.00 0.00 88 1020.4
20260830092709 68 215 0.0 0.0 0.00 0.00 0.00 88 1020.5
20260830092206 68 212 0.0 0.0 0.00 0.00 0.00 88 1020.5
20260830091702 68 210 0.0 0.0 0.00 0.00 0.00 88 1020.5
20260830091200 68 212 0.0 0.0 0.00 0.00 0.00 88 1020.5
20260830090655 68 214 0.0 0.0 0.00 0.00 0.00 88 1020.6
20260830090150 68 212 0.0 1.0 0.00 0.00 0.00 88 1020.5
20260830085649 68 204 1.0 1.0 0.00 0.00 0.00 88 1020.5